Regional Weather Roundup
Issued by NWS

Home | Current Version | Previous Version | Text Only | Print | Product List | Glossary On
Versions: 1 2 3 4 5 6 7 8 9 10 11 12 13 14 15 16 17 18 19 20 21 22 23 24 25 26 27 28 29 30 31 32 33 34 35 36 37 38 39 40 41 42 43 44 45 46 47 48 49 50
000
ASUS45 KBOU 200607
RWRCO

WEATHER ROUNDUP FOR COLORADO
NATIONAL WEATHER SERVICE DENVER/BOULDER CO
1100 PM MST THU JAN 19 2017

NOTE: "FAIR" INDICATES FEW OR NO CLOUDS BELOW 12000 FEET WITH NO
SIGNIFICANT WEATHER AND/OR OBSTRUCTIONS TO VISIBILITY.

COZ001>005-013-030-031-200700-
...NORTHWEST COLORADO...

CITY           SKY/WX    TMP DP  RH WIND       PRES   REMARKS
CRAIG          LGT SNOW  28  25  88 CALM      29.65F FOG
HAYDEN         CLOUDY    27  21  80 E5        29.64F WCI  21
MEEKER         LGT SNOW  30  29  96 CALM      29.64F FOG
MOUNT WERNER   NOT AVBL
STEAMBOAT SPGS CLOUDY    23  22  95 CALM      29.64S
WALDEN           N/A     23  19  86 S9        29.62R WCI  13
$$

COZ006>008-011-200700-
...WEST CENTRAL VALLEYS...

CITY           SKY/WX    TMP DP  RH WIND       PRES   REMARKS
GRAND JUNCTION CLOUDY    31  31 100 CALM      29.67F FOG
MONTROSE       MOCLDY    30  30 100 CALM      29.69F
EAGLE          LGT SNOW  26  25  96 CALM      29.68F FOG
RIFLE          LGT SNOW  31  31 100 CALM      29.67F FOG
DELTA          CLOUDY    36  34  94 NE8       29.69F
NUCLA          LGT SNOW  32  32 100 CALM      29.72F
$$

COZ017>023-064>068-200700-
...SOUTHWEST COLORADO...

CITY           SKY/WX    TMP DP  RH WIND       PRES   REMARKS
DURANGO        LGT SNOW  30  27  88 E5        29.72F FOG     WCI  25
CORTEZ         LGT SNOW  32  32 100 SE5       29.71F VSB 1   WCI  27
PAGOSA SPRINGS LGT SNOW  30  30 100 CALM      29.73F
TELLURIDE      NOT AVBL
WOLF CREEK PAS CLOUDY    14  14 100 S15G22    29.71F WCI  -1
$$

COZ009-010-012-014-032>034-037-058>063-200700-
...CENTRAL COLORADO...

CITY           SKY/WX    TMP DP  RH WIND       PRES   REMARKS
ASPEN          LGT SNOW  26  25  96 NW3       29.63S FOG
BUENA VISTA    CLOUDY    25  23  91 CALM      29.63F
COPPER MTN     LGT SNOW  23  18  80 S8        29.63F WCI  14
BERTHOUD PASS  NOT AVBL
COTTONWOOD PAS CLOUDY    27  25  93 E3        29.62F
GUNNISON       LGT SNOW  12  10  92 CALM      29.71F FOG
KREMMLING      LGT SNOW  19  14  79 CALM      29.68F
LEADVILLE      LGT SNOW  20  18  92 N3        29.59F VSB 1
MONARCH PASS   HVY SNOW  16  12  86 SW13G29   29.73F VSB 1/4 WCI   2
SALIDA         CLOUDY    32  22  67 CALM      29.68F
SUNLIGHT       LGT SNOW  19  18  93 SW10G18   29.67F VSB 1   WCI   8
WILKERSON PASS HVY SNOW  19  18  93 SW9G16    29.62F VSB 1/4 WCI   9
$$

COZ069>075-200700-
...SAN LUIS VALLEY/SANGRE DE CRISTO MOUNTAINS...

CITY           SKY/WX    TMP DP  RH WIND       PRES   REMARKS
ALAMOSA        CLOUDY    20  18  92 S3        29.70S
LA VETA PASS   LGT SNOW  21  18  86 NE26G38   29.60F WCI   4
SAGUACHE       LGT SNOW  23  21  93 CALM      29.70S
$$

COZ035-036-038>040-200700-
...NORTHERN COLORADO FRONT RANGE...

CITY           SKY/WX    TMP DP  RH WIND       PRES   REMARKS
DENVER INTL AP MOCLDY    31  20  63 S8        29.50S WCI  23
DMNS CITY PARK   N/A     33  22  64 N1G7      29.50F
AURORA         PTCLDY    30  20  67 CALM      29.51S
FRONT RANGE AP FAIR      32  25  74 S8        29.51F WCI  25
ERIE MUNI ARPT FAIR      27  23  86 SW3       29.52S
BOULDER MUN AP FAIR      36  21  55 N5        29.51S
CENTENNIAL     FAIR      35  20  54 W3        29.50F
BROOMFIELD     FAIR      39  19  45 N5        29.52S
FORT COLLINS   FAIR      28  19  69 NW3       29.52S
LONGMONT       FAIR      32  24  73 CALM      29.54R
$$

COZ041-046-047-076>085-087-088-200700-
...PIKES PEAK/PALMER DIVIDE AND SOUTHERN FOOTHILLS...

CITY           SKY/WX    TMP DP  RH WIND       PRES   REMARKS
COLO. SPRINGS  CLOUDY    36  19  50 CALM      29.51S
A. F. ACADEMY  FAIR      41  21  45 VRB5      29.50S
SCHRIEVER AFB  NOT AVBL
ELLICOTT       FAIR     N/A N/A N/A SE6       29.49S
FALCON         FAIR      36  18  47 NW5       29.51F
FORT CARSON    MOCLDY    36  21  55 W5        29.50F
LIMON          FAIR      23  21  92 NW6       29.50F WCI  16
MONUMENT HILL  FAIR      30  19  64 W8        29.53S WCI  23
TRINIDAD       CLOUDY    33  25  72 W7        29.51R WCI  27
$$

COZ042>045-048>051-090-091-200700-
...NORTHEAST COLORADO...

CITY           SKY/WX    TMP DP  RH WIND       PRES   REMARKS
GREELEY ARPT   FAIR      26  25  96 N5        29.53F WCI  20
AKRON          FAIR      31  21  66 CALM      29.51F
BURLINGTON     FOG       28  28 100 S8        29.52F VSB 1/2 WCI  20
WRAY           NOT AVBL
STERLING       FAIR      27  23  86 W3        29.51S
HOLYOKE        FAIR      21  19  93 S7        29.53S WCI  13
FORT MORGAN    FAIR      32  23  71 NE6       29.52F WCI  26
$$

COZ086-089-092>099-200700-
...SOUTHEAST COLORADO...

CITY           SKY/WX    TMP DP  RH WIND       PRES   REMARKS
PUEBLO         FAIR      46  29  51 CALM      29.49F
LA JUNTA       FAIR      28  25  88 NE3       29.48F
LAMAR          FOG       30  29  96 E10       29.49F VSB 1/4 WCI  21
SPRINGFIELD      N/A     28  28 100 W5        29.48F WCI  23
$$



USA.gov is the U.S. government's official web portal to all federal, state and local government web resources and services.